| time (UTC) | temp F | wind direction | speed MPH | gust MPH | rain 1hr in | rain 24hr in | rain mn in | humidity % | barometer mb |
| 20260506073037 | 59 | 285 | 0.0 | 2.0 | 0.00 | 0.00 | 0.00 | 44 | 1012.4 |
| 20260506072535 | 59 | 111 | 0.0 | 1.0 | 0.00 | 0.00 | 0.00 | 43 | 1012.3 |
| 20260506072034 | 59 | 112 | 0.0 | 2.0 | 0.00 | 0.00 | 0.00 | 43 | 1012.3 |
| 20260506071532 | 59 | 112 | 0.0 | 2.0 | 0.00 | 0.00 | 0.00 | 42 | 1012.2 |
| 20260506071030 | 60 | 89 | 0.0 | 1.0 | 0.00 | 0.00 | 0.00 | 40 | 1012.1 |
| 20260506070529 | 62 | 89 | 0.0 | 3.0 | 0.00 | 0.00 | 0.00 | 38 | 1011.9 |
| 20260506062020 | 62 | 283 | 0.0 | 1.0 | 0.00 | 0.00 | 0.00 | 37 | 1011.1 |
| 20260506061519 | 62 | 283 | 0.0 | 1.0 | 0.00 | 0.00 | 0.00 | 38 | 1011.0 |
| 20260506061019 | 62 | 284 | 0.0 | 1.0 | 0.00 | 0.00 | 0.00 | 37 | 1011.0 |
| 20260506060517 | 62 | 284 | 0.0 | 1.0 | 0.00 | 0.00 | 0.00 | 36 | 1011.0 |
| 20260506051010 | 69 | 269 | 1.0 | 6.0 | 0.00 | 0.00 | 0.00 | 24 | 1010.0 |
| 20260506050508 | 70 | 294 | 0.0 | 3.0 | 0.00 | 0.00 | 0.00 | 24 | 1010.0 |
| 20260506045008 | 70 | 290 | 1.0 | 3.0 | 0.00 | 0.00 | 0.00 | 23 | 1009.7 |
| 20260506044510 | 70 | 288 | 0.0 | 8.0 | 0.00 | 0.00 | 0.00 | 24 | 1009.6 |
| 20260506044006 | 70 | 297 | 3.0 | 8.0 | 0.00 | 0.00 | 0.00 | 25 | 1009.5 |
| 20260506043507 | 70 | 288 | 3.0 | 8.0 | 0.00 | 0.00 | 0.00 | 25 | 1009.4 |
| 20260506043006 | 70 | 290 | 1.0 | 7.0 | 0.00 | 0.00 | 0.00 | 25 | 1009.3 |
| 20260506042510 | 70 | 297 | 1.0 | 10.0 | 0.00 | 0.00 | 0.00 | 25 | 1009.3 |
| 20260506042006 | 71 | 309 | 3.0 | 13.0 | 0.00 | 0.00 | 0.00 | 25 | 1009.2 |
| 20260506041506 | 71 | 303 | 4.0 | 13.0 | 0.00 | 0.00 | 0.00 | 25 | 1009.2 |
| 20260506041005 | 71 | 249 | 3.0 | 13.0 | 0.00 | 0.00 | 0.00 | 26 | 1008.9 |
| 20260506040510 | 71 | 303 | 4.0 | 13.0 | 0.00 | 0.00 | 0.00 | 25 | 1008.9 |
| 20260506040005 | 71 | 294 | 3.0 | 8.0 | 0.00 | 0.00 | 0.00 | 26 | 1008.7 |
| 20260506035505 | 71 | 297 | 3.0 | 8.0 | 0.00 | 0.00 | 0.00 | 26 | 1008.7 |
| 20260506035004 | 71 | 283 | 1.0 | 8.0 | 0.00 | 0.00 | 0.00 | 26 | 1008.6 |
| 20260506034504 | 71 | 316 | 2.0 | 8.0 | 0.00 | 0.00 | 0.00 | 26 | 1008.6 |
| 20260506034004 | 72 | 294 | 2.0 | 9.0 | 0.00 | 0.00 | 0.00 | 25 | 1008.5 |
| 20260506033503 | 72 | 310 | 3.0 | 9.0 | 0.00 | 0.00 | 0.00 | 25 | 1008.4 |
| 20260506033004 | 72 | 300 | 4.0 | 7.0 | 0.00 | 0.00 | 0.00 | 25 | 1008.4 |
| 20260506032503 | 72 | 297 | 2.0 | 6.0 | 0.00 | 0.00 | 0.00 | 25 | 1008.2 |
| 20260506032004 | 72 | 279 | 2.0 | 8.0 | 0.00 | 0.00 | 0.00 | 25 | 1008.1 |
| 20260506031509 | 72 | 288 | 3.0 | 8.0 | 0.00 | 0.00 | 0.00 | 25 | 1008.0 |
| 20260506031002 | 72 | 297 | 3.0 | 8.0 | 0.00 | 0.00 | 0.00 | 25 | 1007.9 |
| 20260506030501 | 72 | 288 | 1.0 | 4.0 | 0.00 | 0.00 | 0.00 | 26 | 1007.8 |
| 20260506030002 | 72 | 294 | 1.0 | 6.0 | 0.00 | 0.00 | 0.00 | 26 | 1007.7 |
| 20260506025502 | 73 | 285 | 2.0 | 9.0 | 0.00 | 0.00 | 0.00 | 26 | 1007.6 |
| 20260506025001 | 73 | 286 | 3.0 | 9.0 | 0.00 | 0.00 | 0.00 | 26 | 1007.5 |
| 20260506024504 | 73 | 292 | 2.0 | 6.0 | 0.00 | 0.00 | 0.00 | 26 | 1007.5 |
| 20260506024002 | 73 | 278 | 2.0 | 5.0 | 0.00 | 0.00 | 0.00 | 26 | 1007.5 |
| 20260506023502 | 73 | 297 | 2.0 | 10.0 | 0.00 | 0.00 | 0.00 | 26 | 1007.4 |
| 20260506023000 | 74 | 291 | 3.0 | 10.0 | 0.00 | 0.00 | 0.00 | 26 | 1007.4 |
| 20260506022600 | 74 | 291 | 2.0 | 7.0 | 0.00 | 0.00 | 0.00 | 25 | 1007.2 |
| 20260506022059 | 74 | 282 | 1.0 | 7.0 | 0.00 | 0.00 | 0.00 | 25 | 1007.2 |
| 20260506021608 | 74 | 294 | 1.0 | 7.0 | 0.00 | 0.00 | 0.00 | 25 | 1007.1 |
| 20260506021100 | 75 | 285 | 2.0 | 7.0 | 0.00 | 0.00 | 0.00 | 24 | 1007.0 |
| 20260506020559 | 75 | 297 | 2.0 | 12.0 | 0.00 | 0.00 | 0.00 | 24 | 1007.0 |
| 20260506020059 | 75 | 295 | 4.0 | 12.0 | 0.00 | 0.00 | 0.00 | 24 | 1007.0 |
| 20260506015559 | 75 | 326 | 5.0 | 15.0 | 0.00 | 0.00 | 0.00 | 24 | 1006.8 |
| 20260506015059 | 76 | 311 | 3.0 | 15.0 | 0.00 | 0.00 | 0.00 | 24 | 1006.8 |
| 20260506014612 | 76 | 302 | 6.0 | 14.0 | 0.00 | 0.00 | 0.00 | 23 | 1006.7 |
| 20260506014058 | 76 | 314 | 3.0 | 12.0 | 0.00 | 0.00 | 0.00 | 24 | 1006.7 |
| 20260506013557 | 76 | 283 | 6.0 | 13.0 | 0.00 | 0.00 | 0.00 | 23 | 1006.7 |
| 20260506013057 | 76 | 285 | 5.0 | 15.0 | 0.00 | 0.00 | 0.00 | 22 | 1006.6 |
| 20260506012557 | 76 | 309 | 5.0 | 14.0 | 0.00 | 0.00 | 0.00 | 22 | 1006.7 |
| 20260506012101 | 77 | 294 | 4.0 | 17.0 | 0.00 | 0.00 | 0.00 | 22 | 1006.6 |
| 20260506011557 | 77 | 305 | 6.0 | 17.0 | 0.00 | 0.00 | 0.00 | 22 | 1006.5 |
| 20260506011056 | 77 | 293 | 6.0 | 14.0 | 0.00 | 0.00 | 0.00 | 22 | 1006.6 |
| 20260506010556 | 77 | 287 | 6.0 | 14.0 | 0.00 | 0.00 | 0.00 | 22 | 1006.6 |
| 20260506010104 | 77 | 257 | 4.0 | 16.0 | 0.00 | 0.00 | 0.00 | 21 | 1006.5 |
| 20260506005556 | 77 | 301 | 6.0 | 17.0 | 0.00 | 0.00 | 0.00 | 20 | 1006.6 |
| 20260506005055 | 77 | 359 | 7.0 | 17.0 | 0.00 | 0.00 | 0.00 | 21 | 1006.6 |
| 20260506004555 | 78 | 291 | 4.0 | 16.0 | 0.00 | 0.00 | 0.00 | 20 | 1006.5 |
| 20260506004055 | 77 | 283 | 4.0 | 14.0 | 0.00 | 0.00 | 0.00 | 21 | 1006.5 |
| 20260506003555 | 78 | 307 | 7.0 | 14.0 | 0.00 | 0.00 | 0.00 | 20 | 1006.5 |
| 20260506003055 | 78 | 328 | 5.0 | 15.0 | 0.00 | 0.00 | 0.00 | 20 | 1006.4 |
| 20260506002556 | 78 | 288 | 7.0 | 18.0 | 0.00 | 0.00 | 0.00 | 20 | 1006.4 |
| 20260506002054 | 78 | 293 | 7.0 | 18.0 | 0.00 | 0.00 | 0.00 | 20 | 1006.4 |
| 20260506001559 | 78 | 294 | 4.0 | 15.0 | 0.00 | 0.00 | 0.00 | 20 | 1006.5 |
| 20260506001054 | 78 | 316 | 6.0 | 15.0 | 0.00 | 0.00 | 0.00 | 19 | 1006.5 |
| 20260506000554 | 78 | 285 | 6.0 | 13.0 | 0.00 | 0.00 | 0.00 | 20 | 1006.4 |
| 20260506000058 | 78 | 283 | 8.0 | 14.0 | 0.00 | 0.00 | 0.00 | 20 | 1006.5 |
| 20260505235555 | 79 | 294 | 7.0 | 14.0 | 0.00 | 0.00 | 0.00 | 19 | 1006.5 |
| 20260505235053 | 79 | 283 | 6.0 | 15.0 | 0.00 | 0.00 | 0.00 | 20 | 1006.5 |
| 20260505234553 | 79 | 294 | 7.0 | 16.0 | 0.00 | 0.00 | 0.00 | 20 | 1006.4 |
| 20260505234053 | 79 | 283 | 6.0 | 16.0 | 0.00 | 0.00 | 0.00 | 20 | 1006.5 |
| 20260505233552 | 79 | 307 | 7.0 | 15.0 | 0.00 | 0.00 | 0.00 | 21 | 1006.4 |
| 20260505233104 | 79 | 288 | 8.0 | 14.0 | 0.00 | 0.00 | 0.00 | 20 | 1006.5 |
| 20260505232553 | 79 | 297 | 3.0 | 12.0 | 0.00 | 0.00 | 0.00 | 20 | 1006.6 |
| 20260505232051 | 79 | 316 | 6.0 | 14.0 | 0.00 | 0.00 | 0.00 | 21 | 1006.6 |
| 20260505231550 | 79 | 345 | 6.0 | 14.0 | 0.00 | 0.00 | 0.00 | 22 | 1006.5 |
| 20260505231055 | 79 | 302 | 4.0 | 16.0 | 0.00 | 0.00 | 0.00 | 22 | 1006.6 |
| 20260505230549 | 79 | 294 | 5.0 | 11.0 | 0.00 | 0.00 | 0.00 | 22 | 1006.6 |
| 20260505230051 | 78 | 287 | 4.0 | 10.0 | 0.00 | 0.00 | 0.00 | 22 | 1006.6 |
| 20260505225548 | 78 | 285 | 4.0 | 10.0 | 0.00 | 0.00 | 0.00 | 25 | 1006.8 |
| 20260505225148 | 78 | 304 | 4.0 | 10.0 | 0.00 | 0.00 | 0.00 | 24 | 1006.7 |
| 20260505224549 | 79 | 297 | 1.0 | 11.0 | 0.00 | 0.00 | 0.00 | 26 | 1006.7 |
| 20260505224049 | 79 | 301 | 5.0 | 11.0 | 0.00 | 0.00 | 0.00 | 25 | 1007.0 |
| 20260505223546 | 78 | 294 | 4.0 | 11.0 | 0.00 | 0.00 | 0.00 | 27 | 1006.8 |
| 20260505223049 | 77 | 320 | 2.0 | 11.0 | 0.00 | 0.00 | 0.00 | 29 | 1006.9 |
| 20260505222544 | 77 | 285 | 4.0 | 11.0 | 0.00 | 0.00 | 0.00 | 29 | 1007.0 |
| 20260505222044 | 77 | 297 | 3.0 | 9.0 | 0.00 | 0.00 | 0.00 | 30 | 1007.1 |
| 20260505221543 | 77 | 304 | 4.0 | 14.0 | 0.00 | 0.00 | 0.00 | 30 | 1007.2 |
| 20260505221043 | 77 | 296 | 5.0 | 14.0 | 0.00 | 0.00 | 0.00 | 30 | 1007.2 |
| 20260505220541 | 77 | 297 | 5.0 | 13.0 | 0.00 | 0.00 | 0.00 | 30 | 1007.3 |
| 20260505220044 | 77 | 297 | 4.0 | 12.0 | 0.00 | 0.00 | 0.00 | 30 | 1007.5 |
| 20260505215540 | 77 | 280 | 4.0 | 13.0 | 0.00 | 0.00 | 0.00 | 30 | 1007.5 |
| 20260505215041 | 77 | 327 | 5.0 | 12.0 | 0.00 | 0.00 | 0.00 | 30 | 1007.6 |
| 20260505214539 | 76 | 295 | 6.0 | 12.0 | 0.00 | 0.00 | 0.00 | 30 | 1007.7 |
| 20260505214041 | 76 | 305 | 3.0 | 12.0 | 0.00 | 0.00 | 0.00 | 30 | 1007.7 |
| 20260505213537 | 76 | 283 | 6.0 | 10.0 | 0.00 | 0.00 | 0.00 | 31 | 1007.8 |
| 20260505213045 | 76 | 297 | 5.0 | 10.0 | 0.00 | 0.00 | 0.00 | 30 | 1007.9 |
| 20260505212537 | 75 | 123 | 3.0 | 13.0 | 0.00 | 0.00 | 0.00 | 31 | 1008.0 |
| 20260505212037 | 75 | 307 | 6.0 | 13.0 | 0.00 | 0.00 | 0.00 | 30 | 1008.1 |
| 20260505211541 | 75 | 291 | 3.0 | 8.0 | 0.00 | 0.00 | 0.00 | 31 | 1008.1 |
| 20260505211035 | 75 | 305 | 3.0 | 13.0 | 0.00 | 0.00 | 0.00 | 30 | 1008.2 |
| 20260505210535 | 75 | 315 | 5.0 | 13.0 | 0.00 | 0.00 | 0.00 | 30 | 1008.3 |
| 20260505210033 | 75 | 306 | 4.0 | 11.0 | 0.00 | 0.00 | 0.00 | 30 | 1008.3 |
| 20260505205536 | 74 | 307 | 5.0 | 11.0 | 0.00 | 0.00 | 0.00 | 30 | 1008.4 |
| 20260505205032 | 74 | 305 | 3.0 | 13.0 | 0.00 | 0.00 | 0.00 | 31 | 1008.4 |
| 20260505204534 | 74 | 285 | 6.0 | 13.0 | 0.00 | 0.00 | 0.00 | 30 | 1008.5 |
| 20260505204034 | 74 | 318 | 4.0 | 11.0 | 0.00 | 0.00 | 0.00 | 31 | 1008.6 |
| 20260505203530 | 74 | 277 | 4.0 | 14.0 | 0.00 | 0.00 | 0.00 | 31 | 1008.7 |
| 20260505203034 | 73 | 288 | 5.0 | 14.0 | 0.00 | 0.00 | 0.00 | 31 | 1008.7 |
| 20260505202529 | 73 | 300 | 4.0 | 11.0 | 0.00 | 0.00 | 0.00 | 32 | 1008.8 |
| 20260505202029 | 73 | 290 | 3.0 | 11.0 | 0.00 | 0.00 | 0.00 | 32 | 1008.8 |
| 20260505201533 | 73 | 333 | 5.0 | 15.0 | 0.00 | 0.00 | 0.00 | 31 | 1008.9 |
| 20260505201027 | 73 | 300 | 4.0 | 15.0 | 0.00 | 0.00 | 0.00 | 31 | 1008.8 |
| 20260505200527 | 73 | 300 | 2.0 | 9.0 | 0.00 | 0.00 | 0.00 | 32 | 1008.9 |
| 20260505200025 | 72 | 307 | 2.0 | 10.0 | 0.00 | 0.00 | 0.00 | 32 | 1009.0 |
| 20260505195528 | 72 | 311 | 4.0 | 10.0 | 0.00 | 0.00 | 0.00 | 32 | 1009.1 |
| 20260505195024 | 72 | 294 | 5.0 | 10.0 | 0.00 | 0.00 | 0.00 | 32 | 1009.1 |
| 20260505194524 | 72 | 314 | 4.0 | 11.0 | 0.00 | 0.00 | 0.00 | 32 | 1009.1 |
| 20260505194023 | 72 | 298 | 4.0 | 11.0 | 0.00 | 0.00 | 0.00 | 32 | 1009.1 |
| 20260505193525 | 72 | 277 | 5.0 | 8.0 | 0.00 | 0.00 | 0.00 | 32 | 1009.2 |
| 20260505193022 | 72 | 291 | 3.0 | 12.0 | 0.00 | 0.00 | 0.00 | 33 | 1009.3 |
| 20260505192521 | 71 | 296 | 4.0 | 12.0 | 0.00 | 0.00 | 0.00 | 33 | 1009.3 |
| 20260505192021 | 71 | 287 | 4.0 | 10.0 | 0.00 | 0.00 | 0.00 | 33 | 1009.4 |
| 20260505191519 | 71 | 306 | 2.0 | 11.0 | 0.00 | 0.00 | 0.00 | 34 | 1009.4 |
| 20260505191017 | 71 | 293 | 2.0 | 11.0 | 0.00 | 0.00 | 0.00 | 34 | 1009.4 |
| 20260505190517 | 70 | 297 | 2.0 | 8.0 | 0.00 | 0.00 | 0.00 | 34 | 1009.6 |
| 20260505190034 | 70 | 301 | 2.0 | 10.0 | 0.00 | 0.00 | 0.00 | 35 | 1009.5 |
| 20260505185517 | 70 | 291 | 2.0 | 11.0 | 0.00 | 0.00 | 0.00 | 34 | 1009.7 |
| 20260505185015 | 70 | 299 | 2.0 | 11.0 | 0.00 | 0.00 | 0.00 | 34 | 1009.6 |
| 20260505184523 | 70 | 288 | 2.0 | 8.0 | 0.00 | 0.00 | 0.00 | 34 | 1009.7 |
| 20260505184013 | 69 | 290 | 3.0 | 9.0 | 0.00 | 0.00 | 0.00 | 34 | 1009.8 |
| 20260505183512 | 69 | 295 | 3.0 | 9.0 | 0.00 | 0.00 | 0.00 | 34 | 1009.8 |
| 20260505183015 | 69 | 297 | 3.0 | 9.0 | 0.00 | 0.00 | 0.00 | 34 | 1009.8 |
| 20260505182510 | 68 | 307 | 3.0 | 8.0 | 0.00 | 0.00 | 0.00 | 35 | 1009.9 |
| 20260505182008 | 68 | 297 | 2.0 | 6.0 | 0.00 | 0.00 | 0.00 | 35 | 1010.0 |
| 20260505181508 | 68 | 288 | 2.0 | 7.0 | 0.00 | 0.00 | 0.00 | 35 | 1010.0 |
| 20260505181008 | 68 | 294 | 3.0 | 7.0 | 0.00 | 0.00 | 0.00 | 35 | 1010.1 |
| 20260505180507 | 67 | 285 | 2.0 | 9.0 | 0.00 | 0.00 | 0.00 | 36 | 1010.1 |
| 20260505180008 | 67 | 276 | 3.0 | 9.0 | 0.00 | 0.00 | 0.00 | 36 | 1010.2 |
| 20260505175505 | 67 | 277 | 2.0 | 7.0 | 0.00 | 0.00 | 0.00 | 36 | 1010.1 |
| 20260505175004 | 67 | 314 | 1.0 | 6.0 | 0.00 | 0.00 | 0.00 | 36 | 1010.1 |
| 20260505174504 | 66 | 287 | 1.0 | 5.0 | 0.00 | 0.00 | 0.00 | 36 | 1010.1 |
| 20260505174003 | 66 | 305 | 1.0 | 7.0 | 0.00 | 0.00 | 0.00 | 36 | 1010.1 |
| 20260505173503 | 66 | 305 | 2.0 | 7.0 | 0.00 | 0.00 | 0.00 | 36 | 1010.1 |
| 20260505173002 | 67 | 257 | 0.0 | 5.0 | 0.00 | 0.00 | 0.00 | 37 | 1010.1 |
| 20260505172501 | 66 | 290 | 2.0 | 6.0 | 0.00 | 0.00 | 0.00 | 37 | 1010.1 |
| 20260505172100 | 66 | 294 | 2.0 | 6.0 | 0.00 | 0.00 | 0.00 | 37 | 1010.1 |
| 20260505171559 | 65 | 330 | 2.0 | 8.0 | 0.00 | 0.00 | 0.00 | 38 | 1010.1 |
| 20260505171059 | 65 | 285 | 4.0 | 8.0 | 0.00 | 0.00 | 0.00 | 37 | 1010.1 |
| 20260505170558 | 65 | 117 | 0.0 | 3.0 | 0.00 | 0.00 | 0.00 | 39 | 1010.0 |
| 20260505170057 | 65 | 321 | 1.0 | 3.0 | 0.00 | 0.00 | 0.00 | 38 | 1010.0 |
| 20260505165555 | 64 | 109 | 0.0 | 7.0 | 0.00 | 0.00 | 0.00 | 39 | 1010.0 |
| 20260505165055 | 64 | 239 | 1.0 | 5.0 | 0.00 | 0.00 | 0.00 | 39 | 1010.0 |
| 20260505164554 | 64 | 117 | 2.0 | 5.0 | 0.00 | 0.00 | 0.00 | 40 | 1010.1 |
| 20260505164053 | 64 | 303 | 1.0 | 5.0 | 0.00 | 0.00 | 0.00 | 41 | 1010.0 |
| 20260505163553 | 64 | 109 | 0.0 | 4.0 | 0.00 | 0.00 | 0.00 | 40 | 1010.0 |
| 20260505163052 | 64 | 117 | 1.0 | 5.0 | 0.00 | 0.00 | 0.00 | 40 | 1010.0 |
| 20260505162553 | 64 | 105 | 1.0 | 6.0 | 0.00 | 0.00 | 0.00 | 41 | 1010.0 |
| 20260505162050 | 64 | 130 | 2.0 | 7.0 | 0.00 | 0.00 | 0.00 | 42 | 1009.9 |
| 20260505161549 | 63 | 1 | 2.0 | 5.0 | 0.00 | 0.00 | 0.00 | 41 | 1009.9 |
| 20260505161049 | 63 | 110 | 2.0 | 4.0 | 0.00 | 0.00 | 0.00 | 41 | 1009.9 |
| 20260505160548 | 63 | 120 | 1.0 | 5.0 | 0.00 | 0.00 | 0.00 | 42 | 1009.8 |
| 20260505153048 | 60 | 297 | 0.0 | 2.0 | 0.00 | 0.00 | 0.00 | 51 | 1009.7 |
| 20260505152544 | 60 | 124 | 0.0 | 2.0 | 0.00 | 0.00 | 0.00 | 55 | 1009.7 |
| 20260505152044 | 59 | 117 | 0.0 | 1.0 | 0.00 | 0.00 | 0.00 | 56 | 1009.7 |
| 20260505151544 | 58 | 339 | 0.0 | 0.0 | 0.00 | 0.00 | 0.00 | 62 | 1009.8 |
| 20260505151048 | 57 | 122 | 0.0 | 0.0 | 0.00 | 0.00 | 0.00 | 65 | 1009.8 |
| 20260505150544 | 57 | 122 | 0.0 | 1.0 | 0.00 | 0.00 | 0.00 | 66 | 1009.8 |
| 20260505140539 | 52 | 122 | 0.0 | 0.0 | 0.00 | 0.00 | 0.00 | 71 | 1009.3 |
| 20260505125026 | 50 | 98 | 0.0 | 0.0 | 0.00 | 0.00 | 0.00 | 73 | 1008.1 |
| 20260505124526 | 50 | 98 | 0.0 | 0.0 | 0.00 | 0.00 | 0.00 | 73 | 1008.0 |
| 20260505124025 | 51 | 98 | 0.0 | 0.0 | 0.00 | 0.00 | 0.00 | 71 | 1007.9 |
| 20260505123524 | 50 | 98 | 0.0 | 1.0 | 0.00 | 0.00 | 0.00 | 70 | 1007.9 |
| 20260505123024 | 50 | 98 | 0.0 | 1.0 | 0.00 | 0.00 | 0.00 | 71 | 1007.8 |
| 20260505122523 | 50 | 98 | 0.0 | 0.0 | 0.00 | 0.00 | 0.00 | 72 | 1007.7 |
| 20260505122022 | 49 | 97 | 0.0 | 0.0 | 0.00 | 0.00 | 0.00 | 74 | 1007.6 |
| 20260505121521 | 49 | 98 | 0.0 | 0.0 | 0.00 | 0.00 | 0.00 | 75 | 1007.5 |
| 20260505121021 | 49 | 98 | 0.0 | 0.0 | 0.00 | 0.00 | 0.00 | 74 | 1007.3 |
| 20260505120520 | 49 | 97 | 0.0 | 0.0 | 0.00 | 0.00 | 0.00 | 74 | 1007.2 |
| 20260505120033 | 49 | 98 | 0.0 | 1.0 | 0.00 | 0.00 | 0.00 | 74 | 1007.2 |
| 20260505115518 | 49 | 97 | 0.0 | 1.0 | 0.00 | 0.00 | 0.00 | 74 | 1007.1 |
| 20260505115017 | 50 | 98 | 0.0 | 0.0 | 0.00 | 0.00 | 0.00 | 74 | 1007.1 |
| 20260505114517 | 50 | 98 | 0.0 | 1.0 | 0.00 | 0.00 | 0.00 | 73 | 1007.0 |
| 20260505114016 | 50 | 98 | 0.0 | 1.0 | 0.00 | 0.00 | 0.00 | 73 | 1007.0 |
| 20260505113514 | 50 | 98 | 0.0 | 0.0 | 0.00 | 0.00 | 0.00 | 74 | 1006.9 |
| 20260505113014 | 50 | 97 | 0.0 | 0.0 | 0.00 | 0.00 | 0.00 | 74 | 1006.8 |
| 20260505112512 | 50 | 97 | 0.0 | 0.0 | 0.00 | 0.00 | 0.00 | 73 | 1006.7 |
| 20260505112011 | 50 | 98 | 0.0 | 1.0 | 0.00 | 0.00 | 0.00 | 72 | 1006.6 |
| 20260505111522 | 50 | 98 | 0.0 | 1.0 | 0.00 | 0.00 | 0.00 | 72 | 1006.5 |
| 20260505111009 | 50 | 98 | 0.0 | 1.0 | 0.00 | 0.00 | 0.00 | 71 | 1006.4 |
| 20260505110510 | 51 | 97 | 0.0 | 0.0 | 0.00 | 0.00 | 0.00 | 72 | 1006.3 |
| 20260505102103 | 51 | 98 | 0.0 | 0.0 | 0.00 | 0.00 | 0.00 | 70 | 1005.8 |
| 20260505101600 | 52 | 98 | 0.0 | 0.0 | 0.00 | 0.00 | 0.00 | 70 | 1005.8 |
| 20260505101059 | 52 | 98 | 0.0 | 1.0 | 0.00 | 0.00 | 0.00 | 69 | 1005.7 |
| 20260505100557 | 52 | 98 | 0.0 | 1.0 | 0.00 | 0.00 | 0.00 | 68 | 1005.6 |
| 20260505100058 | 52 | 123 | 0.0 | 0.0 | 0.00 | 0.00 | 0.00 | 68 | 1005.4 |
| 20260505095557 | 52 | 123 | 0.0 | 0.0 | 0.00 | 0.00 | 0.00 | 68 | 1005.4 |
| 20260505095053 | 53 | 123 | 0.0 | 0.0 | 0.00 | 0.00 | 0.00 | 67 | 1005.3 |
| 20260505094554 | 53 | 123 | 0.0 | 0.0 | 0.00 | 0.00 | 0.00 | 66 | 1005.2 |
| 20260505094051 | 54 | 123 | 0.0 | 0.0 | 0.00 | 0.00 | 0.00 | 66 | 1005.1 |
| 20260505093550 | 54 | 123 | 0.0 | 1.0 | 0.00 | 0.00 | 0.00 | 64 | 1004.9 |
| 20260505093048 | 54 | 123 | 0.0 | 1.0 | 0.00 | 0.00 | 0.00 | 63 | 1004.9 |
| 20260505092548 | 55 | 123 | 0.0 | 0.0 | 0.00 | 0.00 | 0.00 | 60 | 1004.9 |
| 20260505092048 | 55 | 123 | 0.0 | 2.0 | 0.00 | 0.00 | 0.00 | 60 | 1004.9 |
| 20260505091608 | 55 | 123 | 0.0 | 2.0 | 0.00 | 0.00 | 0.00 | 61 | 1004.8 |
| 20260505091047 | 55 | 109 | 0.0 | 1.0 | 0.00 | 0.00 | 0.00 | 61 | 1004.8 |
| 20260505090547 | 55 | 109 | 0.0 | 1.0 | 0.00 | 0.00 | 0.00 | 61 | 1004.9 |
| 20260505090059 | 55 | 108 | 0.0 | 1.0 | 0.00 | 0.00 | 0.00 | 61 | 1004.9 |
| 20260505085544 | 55 | 103 | 0.0 | 2.0 | 0.00 | 0.00 | 0.00 | 60 | 1004.8 |
| 20260505085044 | 55 | 103 | 0.0 | 2.0 | 0.00 | 0.00 | 0.00 | 60 | 1004.6 |
| 20260505084600 | 55 | 115 | 0.0 | 2.0 | 0.00 | 0.00 | 0.00 | 61 | 1004.5 |
| 20260505084043 | 55 | 124 | 0.0 | 1.0 | 0.00 | 0.00 | 0.00 | 62 | 1004.5 |
| 20260505083540 | 55 | 127 | 0.0 | 0.0 | 0.00 | 0.00 | 0.00 | 61 | 1004.3 |
| 20260505083058 | 55 | 114 | 0.0 | 1.0 | 0.00 | 0.00 | 0.00 | 61 | 1004.3 |
| 20260505082539 | 55 | 115 | 0.0 | 1.0 | 0.00 | 0.00 | 0.00 | 61 | 1004.1 |
| 20260505082038 | 55 | 115 | 0.0 | 1.0 | 0.00 | 0.00 | 0.00 | 60 | 1004.1 |
| 20260505081552 | 56 | 115 | 0.0 | 2.0 | 0.00 | 0.00 | 0.00 | 61 | 1004.0 |
| 20260505081036 | 56 | 133 | 0.0 | 2.0 | 0.00 | 0.00 | 0.00 | 60 | 1004.0 |
| 20260505080534 | 56 | 125 | 0.0 | 1.0 | 0.00 | 0.00 | 0.00 | 59 | 1003.9 |